Regional Weather Roundup
Issued by NWS Wakefield, VA

Home | Current Version | Previous Version | Graphics & Text | Print | Product List | Glossary On
Versions: 1 2 3 4 5 6 7 8 9 10 11 12 13 14 15 16 17 18 19 20 21 22 23 24 25 26 27 28
000
ASUS41 KAKQ 261815
RWRAKQ

REGIONAL WEATHER ROUNDUP
NATIONAL WEATHER SERVICE WAKEFIELD VA
200 PM EDT MON SEP 26 2016

Note: "fair" indicates few or no clouds below 12,000 feet with no
significant weather and/or obstructions to visibility. * = Denotes
station may not report precipitation (e.g., rain,snow,etc.),
thunder or fog.

VAZ042-051-052>054-056-261900-
NORTHERN VIRGINIA

CITY           SKY/WX    TMP DP  RH WIND       PRES   REMARKS
WASH NATIONAL  CLOUDY    70  60  70 S14       30.10F
DULLES         CLOUDY    67  57  70 S12G21    30.08F
FORT BELVOIR   CLOUDY    68  59  73 S7        30.09F
QUANTICO       CLOUDY    70  60  70 S15G23    30.10F
FREDERICKSBRG* CLOUDY    69  61  75 S7        30.09F
STAFFORD*      CLOUDY    67  60  77 S6        30.14F
WARRENTON      CLOUDY    69  56  64 S9        30.08F
CULPEPER*      CLOUDY    68  61  78 S8        30.09F
MANASSAS*      CLOUDY    66  61  82 S12G18    30.10F
LEESBURG*      CLOUDY    70  63  78 S12       30.08F
WINCHESTER     CLOUDY    72  61  68 SE12G17   30.03F
FRONT ROYAL*   MOCLDY    77  64  65 S7        30.02F
LURAY*         MOCLDY    73  64  73 S9        30.03F
$$

VAZ048-049-060>072-079>083-261900-
CENTRAL AND SOUTH CENTRAL VIRGINIA

CITY           SKY/WX    TMP DP  RH WIND       PRES   REMARKS
RICHMOND       CLOUDY    70  59  68 S7        30.11F
CHESTERFIELD*  CLOUDY    70  48  46 S7        30.12F
PETERSBURG*    CLOUDY    72  61  67 CALM      30.11F
HANOVER        CLOUDY    70  57  63 VRB5      30.12F
TAPPAHANNOCK*  CLOUDY    70  57  63 SE5       30.12F
QUINTON*       CLOUDY    71  59  67 SE6       30.11F
CHARLOTTSVILLE CLOUDY    70  62  76 S9        30.08F
GORDONSVILLE*  CLOUDY    68  63  83 S8        30.09
ORANGE*          N/A     68  63  83 SE8       30.10F
LOUISA*        CLOUDY    70  64  83 S5        30.09F
BUMPASS*       CLOUDY    67  61  79 CALM      30.10F
FARMVILLE*     CLOUDY    72  62  71 S9        30.08F
CREWE*         CLOUDY    70  63  78 S6        30.10F
FORT PICKETT*  CLOUDY    70  61  73 S6        30.11F
CHASE CITY*    CLOUDY    70  61  71 SE6       30.10F
CLARKSVILLE*   CLOUDY    70  61  73 SE3       30.10F
SOUTH HILL*    CLOUDY    70  63  78 CALM      30.16F
LAWRENCEVILLE* CLOUDY    73  62  66 SE6       30.10F
EMPORIA*       CLOUDY    73  59  60 SE6       30.11F
$$

VAZ088>098-261900-
SOUTHEAST VIRGINIA

CITY           SKY/WX    TMP DP  RH WIND       PRES   REMARKS
NORFOLK        CLOUDY    74  55  51 SE10      30.10F
VIRGINIA BEACH PTSUNNY   74  56  53 S9        30.10F
NORFOLK NAVAL  CLOUDY    75  54  47 SE7       30.11F
WEST POINT*    CLOUDY    71  55  55 S7        30.13F
SALUDA*        CLOUDY    72  57  59 S8        30.11F
NEWPORT NEWS   CLOUDY    75  56  51 MISG      30.10F
LANGLEY AFB    PTSUNNY   75  56  51 SE7       30.10F
FORT EUSTIS    PTSUNNY   75  57  53 S6        30.08F
WILLIAMSBURG*  MOSUNNY   73  57  56 S7        30.11F
HR EXEC AP*    CLOUDY    77  59  53 SE5       30.12F
FRANKLIN*      CLOUDY    73  59  62 SE6       30.11F
US460-WAKEFLD  CLOUDY    72  57  59 VRB3      30.11F
$$

VAZ020-022-025-037-045-261900-
WEST CENTRAL AND SOUTHWEST VIRGINIA

CITY           SKY/WX    TMP DP  RH WIND       PRES   REMARKS
STAUNTON*      CLOUDY    70  62  77 S8        30.08F
WAYNESBORO*    CLOUDY    69  62  78 SE6       30.08F
HOT SPRINGS VA LGT RAIN  54  54 100 S5        30.13F VSB<1/4
LYNCHBURG      CLOUDY    68  61  78 S10       30.10F
DANVILLE       CLOUDY    71  62  73 CALM      30.09F
SOUTH BOSTON*  CLOUDY    71  58  64 S6        30.09F
MARTINSVILLE   CLOUDY    67  66  96 SE3       30.10F FOG
ROANOKE        CLOUDY    69  65  86 E10       30.08F
BLACKSBURG     PTSUNNY   76  68  77 E9        30.09F
DUBLIN*        CLOUDY    83  65  53 SW12G17   30.07F
MARION*        SUNNY     80  64  58 W18G31    30.11F
HILLSVILLE*    LGT RAIN  69  69  99 S7        30.12S
RICHLANDS*     MOCLDY    77  66  69 W8        30.10F
WISE*          CLOUDY    70  63  78 SW9       30.12F
ABINGDON*      CLOUDY    82  66  59 NW9G20    30.09F
$$

MDZ021>025-VAZ099-100-261900-
SOUTHERN MARYLAND AND THE DELMARVA PENINSULA

CITY           SKY/WX    TMP DP  RH WIND       PRES   REMARKS
PATUXENT RIVER CLOUDY    70  55  59 VRB3      30.11F
BAY BRIDGE APT CLOUDY    72  55  56 MISG      30.10F
LEONARDTOWN    CLOUDY    68  54  60 SE7       30.12F
DOVER          CLOUDY    72  59  63 E17       30.09F
GEORGETOWN     MOSUNNY   74  49  41 SE14      30.12F
EASTON         CLOUDY    72  52  49 S9        30.15F
CAMBRIDGE      CLOUDY    70  54  56 S3        30.11F
SALISBURY      SUNNY     74  53  48 S8        30.11F
OCEAN CITY     SUNNY     74  56  53 SE9       30.12F
WALLOPS ISLAND MOSUNNY   73  54  51 SE12      30.12F
ACCOMACK*      PTSUNNY   74  49  41 S8        30.12S
$$

NCZ012>017-030>032-261900-
NORTH CENTRAL AND EASTERN NORTH CAROLINA

CITY           SKY/WX    TMP DP  RH WIND       PRES   REMARKS
ROANOKE RAPIDS MOCLDY    73  61  64 S6        30.10F
RALEIGH        CLOUDY    74  63  68 VRB6      30.11F
ELIZABETH CITY CLOUDY    76  62  62 SE6       30.10F
AHOSKIE*       MOSUNNY   74  63  67 S6        30.11F
EDENTON*       NOT AVBL
CURRITUCK*     CLOUDY    76  61  58 E3        30.11F
KILL DEVIL HLS SUNNY     81  67  64 E7        30.09F
MANTEO         SUNNY     75  63  64 E10       30.11F
CAPE HATTERAS  MOSUNNY   80  66  62 VRB6      30.10F
TARBORO*       MOCLDY    75  63  66 SE5       30.11F
GOLDSBORO      PTSUNNY   78  65  63 VRB1      30.08F
WASHINGTON     PTSUNNY   74  61  62 CALM      30.11F
GREENVILLE     CLOUDY    77  61  57 CALM      30.12F
NEW BERN       CLOUDY    79  62  56 CALM      30.11F
WILMINGTON     MOSUNNY   81  67  62 E10       30.09F
$$

VAZ048-261900-
ELSEWHERE

CITY           SKY/WX    TMP DP  RH WIND       PRES   REMARKS
HARRISBURG PA  CLOUDY    64  62  93 SE13      30.07F
BALTIMORE      LGT RAIN  65  60  84 S6        30.10F
ANNAPOLIS      CLOUDY    69  59  70 S7        30.10F
ANDREWS AFB    CLOUDY    66  60  80 S12       30.10F
PHILADELPHIA   CLOUDY    72  49  44 S10       30.11F
HENDERSON NC   CLOUDY    67  58  72 S6        30.11F
GREENSBORO     CLOUDY    76  68  76 S8        30.08F
ROCKY MOUNT    PTSUNNY   77  64  64 VRB5      30.10F
$$

VAZ100-261900-
MARINE

STATION/POSITION TIME  TEMP    WIND        PRES    WAVE   SWELL
                       AIR SEA DIR/SP/G            HT/PER HT/PER
                 (UTC) (F)     (DEG/KT/KT) (MB)    (FT/S) (FT/S)
BRANDYWINE LGT   1700   68     160/ 16/ 19   N/A
CAPE MAY NJ      1700   69 72  130/ 15/ 18 1020.1F
LEWES DE         1700   70 72  140/ 10/ 15 1020.3F
OCEAN-CITY-INLET 1700   71 72  160/ 10/ 15 1021.1F
WACHAPREAGUE VA  1700   72 73  150/  8/ 11 1020.4F
THOMAS POINT MD  1800   69 74  170/ 19/ 20 1020.3F
GOOSES REEF MD   1800   71 75  190/ 12/ 16 1020.0F   2/ 3
COVE POINT MD    1700   69     190/ 14/ 17 1020.7F
SOLOMONS ISLAND  1700   70 76  160/ 10/ 14   N/A
BISHOPS HEAD MD  1700   71 72  160/ 11/ 11 1020.3F
PINEY POINT MD   1700          160/ 10/ 12   N/A
POTOMAC MD       1800   71 75  190/ 12/ 16 1018.8F   1/ 3
CAMBRIDGE MD     1700   71 74  170/  6/ 10 1019.4F
LEWISETTA VA     1700   70 74  180/  8/ 11 1019.7F
RAPPAHANNOCK LGT 1700          140/  8/ 10 1021.0F
STINGRAY PT      1800   72 76  110/ 10/ 12 1020.0F   1/ 3
YORK RVR RNG VA  1700   71     160/ 11/ 13 1019.9F
YORKTOWN VA      1700   73 77  150/  8/ 11 1019.8F
JAMESTOWN VA     1800   72 77  140/  6/  8   N/A     0
DOMINION TERM VA 1700   73     140/  5/  6 1020.3F
KIPTOPEKE VA     1700      76  140/  9/ 15   N/A
CHES BAY BRIDGE  1700   73 76  110/  6/ 10 1020.1F
CAPE HENRY VA    1700   72     140/  9/ 14   N/A
WILLOUBY STN VA  1700   73     140/  4/  6   N/A
CAPE HENRY BUOY  1712      76                N/A     3/ 9
1ST LANDING BUOY 1800   72 76  140/ 12/ 16 1019.4F   2/ 4
CAPE CHARLES BUO 1726      76                N/A     3/ 9
OFFSHORE WE BUOY 1721      76                N/A     3/ 9
64NM E OF VA BCH 1750   74 76  110/ 10/ 12 1019.5F   3/ 9   3/ 9
DUCK PIER NC     1700   75 76  100/  9/ 11 1019.7F
44056 DUCK FRF   1711      77                N/A     3/ 9
OREGON INLET NC  1700   74 75   40/ 10/ 12 1019.8F
HATTERAS NC      1700   75 76   30/  7/ 12 1019.6F
DIAMOND SHLS NC  1750   78 78  120/  8/ 10 1019.0F   3/ 8   3/ 8
CAPE LOOKOUT NC  1800   75      60/ 10/ 12 1018.9F
$$




USA.gov is the U.S. government's official web portal to all federal, state and local government web resources and services.